Regional Weather Roundup
Issued by NWS

Home | Current Version | Previous Version | Graphics & Text | Print | Product List | Glossary On
Versions: 1 2 3 4 5 6 7 8 9 10 11 12 13 14 15 16 17 18 19 20 21 22 23 24 25 26 27 28 29 30 31 32 33 34 35 36 37 38 39 40 41 42 43 44 45 46 47 48 49 50
000
ASUS43 KFSD 061702
RWRSD

WEATHER ROUNDUP FOR SOUTH DAKOTA
NATIONAL WEATHER SERVICE SIOUX FALLS SD
1100 AM CST TUE DEC 06 2016

NOTE: "FAIR" INDICATES FEW OR NO CLOUDS BELOW 12,000 FEET WITH NO
SIGNIFICANT WEATHER AND/OR OBSTRUCTIONS TO VISIBILITY.


SDZ001>005-009-010-012>017-061800-
NORTHWEST AND NORTH CENTRAL SOUTH DAKOTA

CITY           SKY/WX    TMP DP  RH WIND       PRES   REMARKS
BUFFALO          N/A      6  -2  69 NW31G41   29.92R WCI -18
FAITH            N/A      6   1  80 NW30G38   29.96R WCI -18
MOBRIDGE       SNOW      11   3  70 NW29G49   29.88R VSB 1/2 WCI -11
$$

SDZ012>016-024>037-041>051-057-063-072>074-061800-
SOUTHWEST AND SOUTH CENTRAL SOUTH DAKOTA

CITY           SKY/WX    TMP DP  RH WIND       PRES   REMARKS
RAPID CTY ARPT SUNNY     18   2  49 N17       29.98R WCI   3
PIERRE         PTSUNNY   12   4  70 NW30G40   29.98R WCI -10
CUSTER         SUNNY     15  -6  39 NW13G28   29.81S WCI   1
ELLSWORTH AFB  SUNNY     16   2  52 NW18G25   29.96S WCI   0
PINE RIDGE     SUNNY     13   5  70 W14       30.01R WCI  -2
SPEARFISH      FAIR       9   0  66 NW20G26   29.97R WCI -11
WINNER         FAIR      19   6  57 W18G32    30.00R WCI   4
$$

SDZ004>011-016>023-039-040-061800-
NORTHEAST SOUTH DAKOTA

CITY           SKY/WX    TMP DP  RH WIND       PRES   REMARKS
ABERDEEN       FLURRIES  16   6  65 W26G47    29.78R WCI  -3
WATERTOWN      LGT SNOW  15   9  76 W30G43    29.73R WCI  -5
SISSETON         N/A     19  13  77 NW30G40   29.63R WCI   0
$$

SDZ017-020-022-023-036>040-048>070-061800-
SOUTHEAST SOUTH DAKOTA

CITY           SKY/WX    TMP DP  RH WIND       PRES   REMARKS
SIOUX FALLS    NOT AVBL
HURON          NOT AVBL
MITCHELL       CLOUDY    20  10  65 W29G38    29.95R WCI   1
$$

ABBREVIATIONS USED IN REMARKS
   TC - TEMPERATURE IN CELSIUS
  WCI - WIND CHILL INDEX
   HX - HEAT INDEX
  VSB - VISIBILITY





USA.gov is the U.S. government's official web portal to all federal, state and local government web resources and services.